Tracking 19795 objects as of 19-Jul-2019
HD Live streaming from Space Station
objects crossing your sky now

COSMOS 1782

Track COSMOS 1782 now!
10-day predictions
COSMOS 1782 is classified as:


NORAD ID: 16986
Int'l Code: 1986-074A
Perigee: 546.4 km
Apogee: 558.1 km
Inclination: 82.5 °
Period: 95.5 minutes
Semi major axis: 6923 km
RCS: 9.471 m2 (large)
Launch date: September 30, 1986
Source: Commonwealth of Independent States (former USSR) (CIS)
Launch site: PLESETSK MISSILE AND SPACE COMPLEX (PKMTR)
aabbcc
Your satellite tracking list
Your tracking list is empty




NASA's NSSDC Master Catalog

Two Line Element Set (TLE):
1 16986U 86074A   19200.30761800 -.00000206  00000-0 -15692-4 0  9999
2 16986  82.5066  99.5146 0008451 250.6976 109.3338 15.07091988785629
Source of the keplerian elements: AFSPC